Flag for Japan Weather past 2 weeks in Hiroshima, Japan

Now
76 °F

Partly sunny.


Feels Like: 78 °F
Forecast: 57 / 74 °F
Wind: 5 mph from Southeast

Location: Iwakuni Marine Corps Air Station

Current Time: Sep 18, 2014 at 3:12:51 PM

Latest Report: Sep 18, 2014 at 2:55 PM


Visibility: N/A

Pressure: 29.93 "Hg

Humidity: 45%

Dew point: 53 °F

Location of HiroshimaLocation

Historic Weather in Hiroshima — Graph

°F

Hiroshima temperature yesterday

Maximum temperature yesterday: 80 °F (at 11:55 AM)
Minimum temperature yesterday: 70 °F (at 6:55 AM)
Average temperature yesterday: 75 °F

Past Weeks' High & Low Weather Summary

 TemperatureHumidityPressure
High86 °F (Sep 9, 2:55 PM)90% (Sep 4, 9:55 AM)29.99 "Hg (Sep 4, 9:55 AM)
Low64 °F (Sep 14, 4:55 AM)33% (Sep 9, 2:55 PM)29.61 "Hg (Sep 8, 2:55 PM)
Average76 °F62%29.85 "Hg
* Reported Sep 3 1:55 PM — Sep 18 1:55 PM, Hiroshima, Weather by CustomWeather, © 2014

Note: Actual official high and low records may vary slightly from our data, if they occured in-between our weather recording intervals... More about our weather records

Advertising

Hiroshima weather history for previous 24 hours

 ConditionsComfort  
Time TempWeatherWind HumidityBarometerVisibility
1:55 PM
Sep 18
77 °FPartly sunny.8 mph42%29.93 "HgN/A
12:55 PM76 °FPartly sunny.8 mph42%29.95 "HgN/A
11:55 AM76 °FPartly sunny.7 mph42%29.97 "HgN/A
10:55 AM76 °FPartly sunny.10 mph42%29.99 "HgN/A
9:55 AM75 °FPartly sunny.12 mph43%29.99 "HgN/A
8:55 AM74 °FPartly sunny.14 mph46%29.99 "HgN/A
7:55 AM73 °FMostly cloudy.15 mph48%29.98 "HgN/A
6:55 AM72 °FPartly sunny.13 mph49%29.98 "HgN/A
5:55 AM72 °FPartly sunny.16 mph52%29.96 "HgN/A
4:55 AM72 °FMostly cloudy.15 mph57%29.94 "HgN/A
3:55 AM73 °FPassing clouds.13 mph55%29.93 "HgN/A
2:55 AM70 °FPassing clouds.6 mph64%29.93 "HgN/A
1:55 AM69 °FPassing clouds.5 mph66%29.92 "HgN/A
12:55 AM70 °FPassing clouds.7 mph64%29.92 "HgN/A
11:55 PM
Sep 17
71 °FPassing clouds.5 mph61%29.92 "HgN/A
10:55 PM73 °FPassing clouds.6 mph55%29.93 "HgN/A
9:55 PM74 °FPassing clouds.6 mph52%29.93 "HgN/A
8:55 PM75 °FPassing clouds.5 mph50%29.93 "HgN/A
7:55 PM76 °FPassing clouds.8 mph48%29.93 "HgN/A
6:55 PM76 °FPassing clouds.7 mph47%29.92 "HgN/A
5:55 PM77 °FPartly sunny.7 mph42%29.91 "HgN/A
4:55 PM78 °FPartly sunny.No wind52%29.91 "HgN/A
3:55 PM78 °FPartly sunny.5 mph54%29.91 "HgN/A
Weather by CustomWeather, © 2014

See weather overviewHow to use our weather pages